Location: Unspecified
(47.7670°N, 8.8522°E)
Time: 10:53:53
(UTC+02:00)

X-37B - Visible Passes

Search period start: 14 April 2024 00:00
Search period end: 24 April 2024 00:00
Orbit: 277 x 277 km, 45.0° (Epoch: 01 November)

Date Brightness Start Highest point End Pass type
(mag) Time Alt. Az. Time Alt. Az. Time Alt. Az.
14 Apr 3.1 04:19:32 11° ESE 04:19:32 11° ESE 04:19:44 10° ESE visible
14 Apr 0.5 05:49:34 13° WSW 05:51:34 42° S 05:53:55 10° ESE visible
15 Apr 2.9 04:20:03 13° ESE 04:20:03 13° ESE 04:20:28 10° ESE visible
15 Apr 0.6 05:50:05 12° WSW 05:52:12 40° S 05:54:32 10° ESE visible
16 Apr 2.7 04:20:36 15° ESE 04:20:36 15° ESE 04:21:10 10° ESE visible
16 Apr 0.8 05:50:38 11° WSW 05:52:48 33° S 05:55:05 10° ESE visible
17 Apr 2.6 04:21:13 15° ESE 04:21:13 15° ESE 04:21:49 10° ESE visible
17 Apr 1.2 05:51:16 10° WSW 05:53:24 26° SSW 05:55:32 10° SE visible
18 Apr 2.7 04:21:57 14° ESE 04:21:57 14° ESE 04:22:26 10° ESE visible
18 Apr 1.6 05:52:05 10° WSW 05:53:58 19° SSW 05:55:49 10° SSE visible
19 Apr 2.9 04:22:49 11° ESE 04:22:49 11° ESE 04:23:01 10° ESE visible
